Simultaneous Nadir Overpasses (SNOs) Predictions

Prediction of SNOs between METOP-B and NOAA-19 Satellite Orbit:

Table of predicted SNOs for the next 14.0 days since TLE Epoch: 7/19/2019
Index Date (METOP-B) Time (METOP-B) Lat,Lon (METOP-B) SZA (METOP-B ) Date (NOAA-19) Time (NOAA-19) Lat,Lon (NOAA-19) SZA (NOAA-19 ) Distance(km) Time Diff (sec)
1 07/27/2019 05:52:28 79.40, 108.70 60.48 07/27/2019 05:51:23 79.39, 108.68 60.46 0.90 65
2 07/27/2019 06:43:09 -79.40, -83.96 119.52 07/27/2019 06:42:23 -79.37, -83.87 119.55 3.62 46
3 07/27/2019 07:33:50 79.38, 83.25 60.47 07/27/2019 07:33:24 79.40, 83.13 60.48 2.99 26
4 07/27/2019 08:24:31 -79.39,-109.41 119.52 07/27/2019 08:24:24 -79.38,-109.43 119.53 1.01 7
5 07/27/2019 09:15:12 79.37, 57.80 60.47 07/27/2019 09:15:24 79.37, 57.85 60.48 1.05 12
6 07/27/2019 10:05:53 -79.37,-134.86 119.52 07/27/2019 10:06:25 -79.38,-134.99 119.51 3.02 32
7 07/27/2019 10:56:34 79.36, 32.35 60.47 07/27/2019 10:57:25 79.38, 32.30 60.50 2.87 51
8 07/27/2019 11:47:15 -79.36,-160.31 119.53 07/27/2019 11:48:25 -79.36,-160.27 119.51 0.83 70




NCC Satellite Simultaneous Nadir Overpasses (SNOs) Prediction Service
